| time (UTC) | temp F | wind direction | speed MPH | gust MPH | rain 1hr in | rain 24hr in | rain mn in | humidity % | barometer mb |
| 20260509224917 | 73 | 190 | 0.0 | 1.0 | 0.00 | 0.00 | 0.00 | 56 | 1036.5 |
| 20260509224416 | 73 | 164 | 0.0 | 0.0 | 0.00 | 0.00 | 0.00 | 57 | 1036.5 |
| 20260509223910 | 74 | 164 | 1.0 | 2.0 | 0.00 | 0.00 | 0.00 | 55 | 1036.5 |
| 20260509223404 | 73 | 164 | 1.0 | 2.0 | 0.00 | 0.00 | 0.00 | 54 | 1036.5 |
| 20260509222858 | 74 | 93 | 0.0 | 2.0 | 0.00 | 0.00 | 0.00 | 54 | 1036.5 |
| 20260509222610 | 74 | 126 | 0.0 | 2.0 | 0.00 | 0.00 | 0.00 | 56 | 1036.5 |
| 20260509221846 | 74 | 128 | 0.0 | 2.0 | 0.00 | 0.00 | 0.00 | 55 | 1036.5 |
| 20260509221335 | 73 | 116 | 1.0 | 4.0 | 0.00 | 0.00 | 0.00 | 56 | 1036.5 |
| 20260509220834 | 73 | 136 | 2.0 | 4.0 | 0.00 | 0.00 | 0.00 | 58 | 1036.5 |
| 20260509220328 | 73 | 143 | 1.0 | 4.0 | 0.00 | 0.00 | 0.00 | 56 | 1036.5 |
| 20260509215817 | 73 | 169 | 0.0 | 3.0 | 0.00 | 0.00 | 0.00 | 56 | 1036.5 |
| 20260509215534 | 73 | 11 | 0.0 | 3.0 | 0.00 | 0.00 | 0.00 | 58 | 1036.5 |
| 20260509214811 | 72 | 76 | 0.0 | 3.0 | 0.00 | 0.00 | 0.00 | 58 | 1036.4 |
| 20260509214304 | 71 | 135 | 0.0 | 3.0 | 0.00 | 0.00 | 0.00 | 58 | 1036.4 |
| 20260509213754 | 71 | 273 | 0.0 | 2.0 | 0.00 | 0.00 | 0.00 | 59 | 1036.4 |
| 20260509213252 | 71 | 69 | 0.0 | 2.0 | 0.00 | 0.00 | 0.00 | 60 | 1036.4 |
| 20260509213009 | 72 | 59 | 0.0 | 2.0 | 0.00 | 0.00 | 0.00 | 58 | 1036.4 |
| 20260509212240 | 72 | 175 | 1.0 | 3.0 | 0.00 | 0.00 | 0.00 | 57 | 1036.4 |
| 20260509211734 | 73 | 148 | 1.0 | 3.0 | 0.00 | 0.00 | 0.00 | 57 | 1036.3 |
| 20260509211228 | 73 | 146 | 1.0 | 3.0 | 0.00 | 0.00 | 0.00 | 55 | 1036.3 |
| 20260509210943 | 73 | 36 | 1.0 | 4.0 | 0.00 | 0.00 | 0.00 | 58 | 1036.3 |
| 20260509210211 | 73 | 99 | 1.0 | 4.0 | 0.00 | 0.00 | 0.00 | 57 | 1036.1 |
| 20260509205709 | 74 | 290 | 1.0 | 4.0 | 0.00 | 0.00 | 0.00 | 58 | 1036.1 |
| 20260509205205 | 73 | 322 | 1.0 | 5.0 | 0.00 | 0.00 | 0.00 | 55 | 1036.1 |
| 20260509204657 | 73 | 258 | 1.0 | 5.0 | 0.00 | 0.00 | 0.00 | 57 | 1036.2 |
| 20260509204153 | 73 | 44 | 1.0 | 4.0 | 0.00 | 0.00 | 0.00 | 56 | 1036.2 |
| 20260509203906 | 72 | 167 | 1.0 | 2.0 | 0.00 | 0.00 | 0.00 | 57 | 1036.2 |
| 20260509203140 | 71 | 265 | 1.0 | 3.0 | 0.00 | 0.00 | 0.00 | 59 | 1036.4 |
| 20260509202630 | 71 | 134 | 1.0 | 4.0 | 0.00 | 0.00 | 0.00 | 60 | 1036.4 |
| 20260509202123 | 71 | 100 | 0.0 | 4.0 | 0.00 | 0.00 | 0.00 | 59 | 1036.4 |
| 20260509201622 | 71 | 317 | 0.0 | 2.0 | 0.00 | 0.00 | 0.00 | 60 | 1036.4 |
| 20260509201600 | 71 | 306 | 1.0 | 6.0 | 0.00 | 0.00 | 0.00 | 61 | 1036.4 |
| 20260509200610 | 71 | 297 | 1.0 | 6.0 | 0.00 | 0.00 | 0.00 | 60 | 1036.5 |
| 20260509200104 | 71 | 101 | 1.0 | 6.0 | 0.00 | 0.00 | 0.00 | 58 | 1036.5 |
| 20260509195813 | 72 | 197 | 1.0 | 6.0 | 0.00 | 0.00 | 0.00 | 56 | 1036.5 |
| 20260509195052 | 72 | 117 | 1.0 | 6.0 | 0.00 | 0.00 | 0.00 | 58 | 1036.6 |
| 20260509194806 | 73 | 105 | 1.0 | 6.0 | 0.00 | 0.00 | 0.00 | 55 | 1036.6 |
| 20260509194039 | 72 | 57 | 1.0 | 4.0 | 0.00 | 0.00 | 0.00 | 57 | 1036.6 |
| 20260509193533 | 71 | 330 | 1.0 | 6.0 | 0.00 | 0.00 | 0.00 | 56 | 1036.6 |
| 20260509193027 | 71 | 232 | 2.0 | 6.0 | 0.00 | 0.00 | 0.00 | 60 | 1036.6 |
| 20260509192522 | 71 | 161 | 1.0 | 8.0 | 0.00 | 0.00 | 0.00 | 59 | 1036.6 |
| 20260509192015 | 70 | 309 | 2.0 | 8.0 | 0.00 | 0.00 | 0.00 | 57 | 1036.7 |
| 20260509191509 | 70 | 315 | 1.0 | 4.0 | 0.00 | 0.00 | 0.00 | 61 | 1036.7 |
| 20260509190959 | 70 | 170 | 1.0 | 5.0 | 0.00 | 0.00 | 0.00 | 61 | 1036.7 |
| 20260509190717 | 69 | 333 | 2.0 | 11.0 | 0.00 | 0.00 | 0.00 | 60 | 1036.7 |
| 20260509185951 | 69 | 136 | 2.0 | 11.0 | 0.00 | 0.00 | 0.00 | 64 | 1036.7 |
| 20260509185446 | 69 | 25 | 1.0 | 6.0 | 0.00 | 0.00 | 0.00 | 61 | 1036.7 |
| 20260509184940 | 70 | 159 | 2.0 | 6.0 | 0.00 | 0.00 | 0.00 | 63 | 1037.0 |
| 20260509184429 | 70 | 227 | 2.0 | 8.0 | 0.00 | 0.00 | 0.00 | 67 | 1037.0 |
| 20260509183927 | 69 | 207 | 2.0 | 8.0 | 0.00 | 0.00 | 0.00 | 64 | 1037.0 |
| 20260509183417 | 69 | 234 | 2.0 | 6.0 | 0.00 | 0.00 | 0.00 | 62 | 1037.3 |
| 20260509183135 | 69 | 233 | 2.0 | 8.0 | 0.00 | 0.00 | 0.00 | 63 | 1037.3 |
| 20260509182409 | 68 | 261 | 2.0 | 8.0 | 0.00 | 0.00 | 0.00 | 63 | 1037.3 |
| 20260509181903 | 69 | 329 | 2.0 | 8.0 | 0.00 | 0.00 | 0.00 | 64 | 1037.5 |
| 20260509181620 | 69 | 272 | 2.0 | 6.0 | 0.00 | 0.00 | 0.00 | 65 | 1037.5 |
| 20260509180851 | 68 | 246 | 1.0 | 6.0 | 0.00 | 0.00 | 0.00 | 65 | 1037.5 |
| 20260509180345 | 67 | 147 | 1.0 | 6.0 | 0.00 | 0.00 | 0.00 | 67 | 1037.5 |
| 20260509175835 | 67 | 300 | 1.0 | 6.0 | 0.00 | 0.00 | 0.00 | 66 | 1037.5 |
| 20260509175334 | 66 | 151 | 1.0 | 4.0 | 0.00 | 0.00 | 0.00 | 68 | 1037.5 |
| 20260509174827 | 65 | 274 | 1.0 | 6.0 | 0.00 | 0.00 | 0.00 | 69 | 1038.0 |
| 20260509174322 | 64 | 267 | 1.0 | 6.0 | 0.00 | 0.00 | 0.00 | 69 | 1038.0 |
| 20260509174041 | 64 | 145 | 1.0 | 4.0 | 0.00 | 0.00 | 0.00 | 70 | 1038.0 |
| 20260509173308 | 63 | 201 | 1.0 | 4.0 | 0.00 | 0.00 | 0.00 | 70 | 1038.5 |
| 20260509172805 | 63 | 73 | 1.0 | 2.0 | 0.00 | 0.00 | 0.00 | 71 | 1038.5 |
| 20260509172253 | 63 | 126 | 1.0 | 7.0 | 0.00 | 0.00 | 0.00 | 72 | 1038.5 |
| 20260509171752 | 63 | 91 | 1.0 | 7.0 | 0.00 | 0.00 | 0.00 | 70 | 1038.5 |
| 20260509171246 | 63 | 101 | 1.0 | 6.0 | 0.00 | 0.00 | 0.00 | 71 | 1038.5 |
| 20260509170740 | 63 | 182 | 1.0 | 6.0 | 0.00 | 0.00 | 0.00 | 73 | 1038.5 |
| 20260509170233 | 63 | 30 | 1.0 | 5.0 | 0.00 | 0.00 | 0.00 | 73 | 1039.0 |
| 20260509165723 | 62 | 82 | 1.0 | 5.0 | 0.00 | 0.00 | 0.00 | 72 | 1039.0 |
| 20260509165221 | 62 | 104 | 1.0 | 4.0 | 0.00 | 0.00 | 0.00 | 72 | 1039.0 |
| 20260509164715 | 62 | 112 | 1.0 | 4.0 | 0.00 | 0.00 | 0.00 | 73 | 1038.9 |
| 20260509164209 | 62 | 125 | 1.0 | 5.0 | 0.00 | 0.00 | 0.00 | 73 | 1038.9 |
| 20260509163702 | 62 | 78 | 1.0 | 5.0 | 0.00 | 0.00 | 0.00 | 72 | 1038.9 |
| 20260509163157 | 62 | 107 | 1.0 | 5.0 | 0.00 | 0.00 | 0.00 | 74 | 1038.5 |
| 20260509162651 | 62 | 329 | 1.0 | 5.0 | 0.00 | 0.00 | 0.00 | 74 | 1038.5 |
| 20260509162145 | 63 | 301 | 1.0 | 3.0 | 0.00 | 0.00 | 0.00 | 71 | 1038.5 |
| 20260509161639 | 63 | 308 | 1.0 | 4.0 | 0.00 | 0.00 | 0.00 | 70 | 1038.4 |
| 20260509161347 | 63 | 300 | 1.0 | 5.0 | 0.00 | 0.00 | 0.00 | 71 | 1038.4 |
| 20260509160627 | 64 | 50 | 1.0 | 5.0 | 0.00 | 0.00 | 0.00 | 70 | 1038.6 |
| 20260509160121 | 64 | 263 | 1.0 | 5.0 | 0.00 | 0.00 | 0.00 | 74 | 1038.6 |
| 20260509155615 | 63 | 78 | 1.0 | 4.0 | 0.00 | 0.00 | 0.00 | 72 | 1038.6 |
| 20260509155108 | 63 | 38 | 1.0 | 4.0 | 0.00 | 0.00 | 0.00 | 71 | 1038.7 |
| 20260509154602 | 64 | 269 | 0.0 | 2.0 | 0.00 | 0.00 | 0.00 | 68 | 1038.7 |
| 20260509154057 | 64 | 273 | 1.0 | 3.0 | 0.00 | 0.00 | 0.00 | 69 | 1038.7 |
| 20260509153546 | 64 | 128 | 1.0 | 5.0 | 0.00 | 0.00 | 0.00 | 68 | 1038.7 |
| 20260509153045 | 64 | 253 | 1.0 | 5.0 | 0.00 | 0.00 | 0.00 | 70 | 1038.7 |
| 20260509152539 | 63 | 153 | 2.0 | 5.0 | 0.00 | 0.00 | 0.00 | 69 | 1038.7 |
| 20260509152300 | 64 | 34 | 2.0 | 5.0 | 0.00 | 0.00 | 0.00 | 72 | 1038.7 |
| 20260509151527 | 63 | 76 | 1.0 | 5.0 | 0.00 | 0.00 | 0.00 | 70 | 1038.7 |
| 20260509151017 | 63 | 171 | 1.0 | 3.0 | 0.00 | 0.00 | 0.00 | 72 | 1038.7 |
| 20260509150515 | 62 | 97 | 1.0 | 3.0 | 0.00 | 0.00 | 0.00 | 70 | 1038.6 |
| 20260509150009 | 62 | 273 | 1.0 | 6.0 | 0.00 | 0.00 | 0.00 | 70 | 1038.6 |
| 20260509145721 | 62 | 326 | 1.0 | 6.0 | 0.00 | 0.00 | 0.00 | 71 | 1038.6 |
| 20260509144957 | 62 | 279 | 1.0 | 5.0 | 0.00 | 0.00 | 0.00 | 70 | 1038.7 |
| 20260509144451 | 62 | 81 | 1.0 | 4.0 | 0.00 | 0.00 | 0.00 | 71 | 1038.7 |
| 20260509143945 | 62 | 128 | 1.0 | 4.0 | 0.00 | 0.00 | 0.00 | 73 | 1038.7 |
| 20260509143443 | 61 | 51 | 0.0 | 2.0 | 0.00 | 0.00 | 0.00 | 73 | 1038.8 |
| 20260509142941 | 60 | 205 | 0.0 | 2.0 | 0.00 | 0.00 | 0.00 | 73 | 1038.8 |
| 20260509142702 | 60 | 117 | 1.0 | 3.0 | 0.00 | 0.00 | 0.00 | 74 | 1038.8 |
| 20260509142421 | 59 | 92 | 1.0 | 3.0 | 0.00 | 0.00 | 0.00 | 73 | 1038.9 |
| 20260509141439 | 59 | 290 | 0.0 | 2.0 | 0.00 | 0.00 | 0.00 | 74 | 1038.9 |
| 20260509141424 | 59 | 116 | 0.0 | 1.0 | 0.00 | 0.00 | 0.00 | 75 | 1038.9 |
| 20260509140437 | 59 | 137 | 0.0 | 1.0 | 0.00 | 0.00 | 0.00 | 75 | 1038.9 |
| 20260509140424 | 59 | 125 | 0.0 | 0.0 | 0.00 | 0.00 | 0.00 | 76 | 1038.9 |
| 20260509135658 | 59 | 125 | 0.0 | 0.0 | 0.00 | 0.00 | 0.00 | 74 | 1038.9 |
| 20260509134937 | 59 | 125 | 0.0 | 1.0 | 0.00 | 0.00 | 0.00 | 74 | 1038.8 |
| 20260509134436 | 58 | 125 | 0.0 | 1.0 | 0.00 | 0.00 | 0.00 | 75 | 1038.8 |
| 20260509133930 | 58 | 126 | 0.0 | 1.0 | 0.00 | 0.00 | 0.00 | 76 | 1038.8 |
| 20260509133421 | 58 | 126 | 0.0 | 1.0 | 0.00 | 0.00 | 0.00 | 76 | 1038.6 |
| 20260509133142 | 58 | 124 | 0.0 | 1.0 | 0.00 | 0.00 | 0.00 | 76 | 1038.6 |
| 20260509132420 | 57 | 124 | 0.0 | 1.0 | 0.00 | 0.00 | 0.00 | 77 | 1038.6 |
| 20260509131921 | 57 | 96 | 0.0 | 1.0 | 0.00 | 0.00 | 0.00 | 79 | 1038.6 |
| 20260509131910 | 57 | 96 | 0.0 | 0.0 | 0.00 | 0.00 | 0.00 | 78 | 1038.6 |
| 20260509130921 | 57 | 96 | 0.0 | 0.0 | 0.00 | 0.00 | 0.00 | 78 | 1038.6 |
| 20260509130421 | 57 | 96 | 0.0 | 0.0 | 0.00 | 0.00 | 0.00 | 76 | 1038.7 |
| 20260509130145 | 57 | 96 | 0.0 | 2.0 | 0.00 | 0.00 | 0.00 | 75 | 1038.7 |
| 20260509125421 | 57 | 94 | 0.0 | 2.0 | 0.00 | 0.00 | 0.00 | 76 | 1038.7 |
| 20260509125138 | 57 | 188 | 0.0 | 1.0 | 0.00 | 0.00 | 0.00 | 78 | 1038.9 |
| 20260509124403 | 57 | 229 | 0.0 | 0.0 | 0.00 | 0.00 | 0.00 | 81 | 1038.9 |
| 20260509123850 | 56 | 229 | 0.0 | 1.0 | 0.00 | 0.00 | 0.00 | 80 | 1038.9 |
| 20260509123341 | 56 | 229 | 0.0 | 1.0 | 0.00 | 0.00 | 0.00 | 78 | 1038.8 |
| 20260509122830 | 56 | 156 | 0.0 | 0.0 | 0.00 | 0.00 | 0.00 | 80 | 1038.8 |
| 20260509122318 | 56 | 156 | 0.0 | 0.0 | 0.00 | 0.00 | 0.00 | 80 | 1038.8 |
| 20260509121818 | 56 | 156 | 0.0 | 1.0 | 0.00 | 0.00 | 0.00 | 79 | 1038.6 |
| 20260509121311 | 56 | 156 | 0.0 | 1.0 | 0.00 | 0.00 | 0.00 | 79 | 1038.6 |
| 20260509120805 | 56 | 156 | 0.0 | 0.0 | 0.00 | 0.00 | 0.00 | 82 | 1038.6 |
| 20260509120254 | 56 | 156 | 0.0 | 0.0 | 0.00 | 0.00 | 0.00 | 81 | 1038.9 |
| 20260509115752 | 56 | 156 | 0.0 | 2.0 | 0.00 | 0.00 | 0.00 | 80 | 1038.9 |
| 20260509115246 | 56 | 156 | 0.0 | 2.0 | 0.00 | 0.00 | 0.00 | 78 | 1038.9 |
| 20260509114741 | 56 | 81 | 0.0 | 0.0 | 0.00 | 0.00 | 0.00 | 81 | 1038.6 |
| 20260509114234 | 55 | 53 | 0.0 | 0.0 | 0.00 | 0.00 | 0.00 | 79 | 1038.6 |
| 20260509113955 | 55 | 53 | 0.0 | 0.0 | 0.00 | 0.00 | 0.00 | 78 | 1038.6 |
| 20260509113218 | 55 | 53 | 0.0 | 0.0 | 0.00 | 0.00 | 0.00 | 78 | 1038.6 |
| 20260509112930 | 55 | 53 | 0.0 | 1.0 | 0.00 | 0.00 | 0.00 | 78 | 1038.6 |
| 20260509112439 | 55 | 53 | 0.0 | 1.0 | 0.00 | 0.00 | 0.00 | 79 | 1038.6 |
| 20260509111704 | 55 | 53 | 0.0 | 1.0 | 0.00 | 0.00 | 0.00 | 78 | 1038.6 |
| 20260509111158 | 55 | 53 | 0.0 | 1.0 | 0.00 | 0.00 | 0.00 | 77 | 1038.6 |
| 20260509110652 | 55 | 21 | 0.0 | 0.0 | 0.00 | 0.00 | 0.00 | 73 | 1038.6 |
| 20260509110146 | 55 | 21 | 0.0 | 0.0 | 0.00 | 0.00 | 0.00 | 73 | 1038.5 |
| 20260509105641 | 55 | 21 | 0.0 | 0.0 | 0.00 | 0.00 | 0.00 | 73 | 1038.5 |
| 20260509105129 | 55 | 21 | 0.0 | 0.0 | 0.00 | 0.00 | 0.00 | 74 | 1038.5 |
| 20260509104700 | 55 | 21 | 0.0 | 1.0 | 0.00 | 0.00 | 0.00 | 73 | 1038.4 |
| 20260509103616 | 56 | 21 | 0.0 | 1.0 | 0.00 | 0.00 | 0.00 | 69 | 1038.4 |
| 20260509103111 | 56 | 262 | 0.0 | 1.0 | 0.00 | 0.00 | 0.00 | 69 | 1038.4 |
| 20260509102604 | 56 | 21 | 0.0 | 0.0 | 0.00 | 0.00 | 0.00 | 66 | 1038.4 |
| 20260509102059 | 56 | 263 | 0.0 | 0.0 | 0.00 | 0.00 | 0.00 | 68 | 1038.0 |
| 20260509101547 | 56 | 263 | 0.0 | 0.0 | 0.00 | 0.00 | 0.00 | 68 | 1038.0 |
| 20260509101046 | 57 | 263 | 0.0 | 0.0 | 0.00 | 0.00 | 0.00 | 68 | 1038.0 |
| 20260509100541 | 57 | 263 | 0.0 | 0.0 | 0.00 | 0.00 | 0.00 | 64 | 1038.0 |
| 20260509100035 | 58 | 263 | 0.0 | 0.0 | 0.00 | 0.00 | 0.00 | 63 | 1038.0 |
| 20260509095529 | 58 | 263 | 0.0 | 0.0 | 0.00 | 0.00 | 0.00 | 62 | 1038.0 |
| 20260509095019 | 59 | 263 | 0.0 | 2.0 | 0.00 | 0.00 | 0.00 | 60 | 1037.9 |
| 20260509094516 | 59 | 263 | 0.0 | 2.0 | 0.00 | 0.00 | 0.00 | 58 | 1037.9 |
| 20260509094006 | 59 | 236 | 1.0 | 4.0 | 0.00 | 0.00 | 0.00 | 58 | 1037.9 |
| 20260509093504 | 59 | 240 | 1.0 | 6.0 | 0.00 | 0.00 | 0.00 | 58 | 1037.9 |
| 20260509092958 | 59 | 261 | 1.0 | 6.0 | 0.00 | 0.00 | 0.00 | 58 | 1037.9 |
| 20260509092453 | 59 | 172 | 1.0 | 3.0 | 0.00 | 0.00 | 0.00 | 59 | 1037.9 |
| 20260509091946 | 59 | 256 | 1.0 | 6.0 | 0.00 | 0.00 | 0.00 | 58 | 1037.7 |
| 20260509091440 | 59 | 159 | 1.0 | 6.0 | 0.00 | 0.00 | 0.00 | 58 | 1037.7 |
| 20260509090934 | 59 | 168 | 2.0 | 8.0 | 0.00 | 0.00 | 0.00 | 58 | 1037.7 |
| 20260509090424 | 59 | 148 | 2.0 | 8.0 | 0.00 | 0.00 | 0.00 | 58 | 1037.9 |
| 20260509090139 | 59 | 266 | 2.0 | 6.0 | 0.00 | 0.00 | 0.00 | 58 | 1037.9 |
| 20260509085416 | 59 | 189 | 2.0 | 6.0 | 0.00 | 0.00 | 0.00 | 58 | 1037.9 |
| 20260509084910 | 59 | 143 | 2.0 | 6.0 | 0.00 | 0.00 | 0.00 | 58 | 1037.9 |
| 20260509084405 | 59 | 239 | 1.0 | 5.0 | 0.00 | 0.00 | 0.00 | 58 | 1037.9 |
| 20260509083858 | 59 | 153 | 1.0 | 5.0 | 0.00 | 0.00 | 0.00 | 58 | 1037.9 |
| 20260509083354 | 59 | 208 | 1.0 | 7.0 | 0.00 | 0.00 | 0.00 | 58 | 1038.0 |
| 20260509082841 | 59 | 232 | 1.0 | 7.0 | 0.00 | 0.00 | 0.00 | 58 | 1038.0 |
| 20260509082341 | 59 | 199 | 2.0 | 7.0 | 0.00 | 0.00 | 0.00 | 59 | 1038.0 |
| 20260509081834 | 59 | 169 | 2.0 | 10.0 | 0.00 | 0.00 | 0.00 | 59 | 1038.1 |
| 20260509081329 | 59 | 180 | 1.0 | 10.0 | 0.00 | 0.00 | 0.00 | 60 | 1038.1 |
| 20260509080818 | 59 | 155 | 1.0 | 4.0 | 0.00 | 0.00 | 0.00 | 60 | 1038.1 |
| 20260509080316 | 59 | 265 | 1.0 | 4.0 | 0.00 | 0.00 | 0.00 | 60 | 1038.1 |
| 20260509075810 | 59 | 250 | 1.0 | 4.0 | 0.00 | 0.00 | 0.00 | 60 | 1038.1 |
| 20260509075300 | 59 | 267 | 2.0 | 8.0 | 0.00 | 0.00 | 0.00 | 60 | 1038.1 |
| 20260509075024 | 59 | 239 | 1.0 | 8.0 | 0.00 | 0.00 | 0.00 | 59 | 1038.1 |
| 20260509074252 | 59 | 228 | 1.0 | 9.0 | 0.00 | 0.00 | 0.00 | 60 | 1038.1 |
| 20260509073746 | 59 | 223 | 2.0 | 9.0 | 0.00 | 0.00 | 0.00 | 60 | 1038.1 |
| 20260509073457 | 59 | 227 | 1.0 | 6.0 | 0.00 | 0.00 | 0.00 | 61 | 1038.1 |
| 20260509072734 | 59 | 252 | 1.0 | 4.0 | 0.00 | 0.00 | 0.00 | 61 | 1038.1 |
| 20260509072228 | 58 | 214 | 1.0 | 3.0 | 0.00 | 0.00 | 0.00 | 62 | 1038.1 |
| 20260509071718 | 58 | 233 | 0.0 | 2.0 | 0.00 | 0.00 | 0.00 | 62 | 1038.3 |
| 20260509071215 | 58 | 290 | 0.0 | 2.0 | 0.00 | 0.00 | 0.00 | 63 | 1038.3 |
| 20260509070712 | 58 | 209 | 0.0 | 2.0 | 0.00 | 0.00 | 0.00 | 64 | 1038.3 |
| 20260509070204 | 58 | 240 | 0.0 | 3.0 | 0.00 | 0.00 | 0.00 | 64 | 1038.5 |
| 20260509065657 | 58 | 240 | 1.0 | 3.0 | 0.00 | 0.00 | 0.00 | 64 | 1038.5 |
| 20260509065152 | 58 | 267 | 1.0 | 3.0 | 0.00 | 0.00 | 0.00 | 64 | 1038.5 |
| 20260509064646 | 58 | 115 | 1.0 | 3.0 | 0.00 | 0.00 | 0.00 | 65 | 1038.6 |
| 20260509064142 | 58 | 196 | 0.0 | 4.0 | 0.00 | 0.00 | 0.00 | 65 | 1038.6 |
| 20260509063640 | 58 | 233 | 0.0 | 4.0 | 0.00 | 0.00 | 0.00 | 65 | 1038.6 |
| 20260509063138 | 58 | 128 | 0.0 | 3.0 | 0.00 | 0.00 | 0.00 | 66 | 1038.6 |
| 20260509062638 | 57 | 229 | 0.0 | 3.0 | 0.00 | 0.00 | 0.00 | 66 | 1038.6 |
| 20260509062141 | 57 | 278 | 0.0 | 3.0 | 0.00 | 0.00 | 0.00 | 67 | 1038.6 |
| 20260509061636 | 56 | 211 | 0.0 | 2.0 | 0.00 | 0.00 | 0.00 | 68 | 1038.8 |
| 20260509061357 | 56 | 255 | 0.0 | 1.0 | 0.00 | 0.00 | 0.00 | 70 | 1038.8 |
| 20260509060632 | 56 | 246 | 0.0 | 0.0 | 0.00 | 0.00 | 0.00 | 71 | 1038.8 |
| 20260509060129 | 56 | 245 | 0.0 | 1.0 | 0.00 | 0.00 | 0.00 | 72 | 1038.8 |
| 20260509055628 | 55 | 245 | 0.0 | 4.0 | 0.00 | 0.00 | 0.00 | 72 | 1038.8 |
| 20260509055125 | 55 | 242 | 0.0 | 4.0 | 0.00 | 0.00 | 0.00 | 75 | 1038.8 |
| 20260509054624 | 53 | 263 | 0.0 | 3.0 | 0.00 | 0.00 | 0.00 | 76 | 1038.8 |
| 20260509054121 | 52 | 250 | 0.0 | 3.0 | 0.00 | 0.00 | 0.00 | 80 | 1038.8 |
| 20260509053620 | 51 | 263 | 0.0 | 1.0 | 0.00 | 0.00 | 0.00 | 84 | 1038.8 |
| 20260509053120 | 50 | 70 | 0.0 | 0.0 | 0.00 | 0.00 | 0.00 | 88 | 1038.9 |
| 20260509052618 | 49 | 70 | 0.0 | 0.0 | 0.00 | 0.00 | 0.00 | 91 | 1038.9 |
| 20260509052117 | 49 | 70 | 0.0 | 0.0 | 0.00 | 0.00 | 0.00 | 91 | 1038.9 |
| 20260509051618 | 49 | 70 | 0.0 | 0.0 | 0.00 | 0.00 | 0.00 | 90 | 1038.8 |
| 20260509051343 | 48 | 70 | 0.0 | 0.0 | 0.00 | 0.00 | 0.00 | 91 | 1038.8 |
| 20260509050619 | 48 | 70 | 0.0 | 0.0 | 0.00 | 0.00 | 0.00 | 91 | 1038.7 |
| 20260509050113 | 48 | 70 | 0.0 | 0.0 | 0.00 | 0.00 | 0.00 | 90 | 1038.7 |
| 20260509045602 | 48 | 70 | 0.0 | 0.0 | 0.00 | 0.00 | 0.00 | 90 | 1038.7 |
| 20260509045100 | 48 | 70 | 0.0 | 0.0 | 0.00 | 0.00 | 0.00 | 90 | 1038.9 |
| 20260509044600 | 48 | 70 | 0.0 | 0.0 | 0.00 | 0.00 | 0.00 | 90 | 1038.9 |
| 20260509044100 | 48 | 70 | 0.0 | 0.0 | 0.00 | 0.00 | 0.00 | 90 | 1038.9 |
| 20260509043559 | 48 | 70 | 0.0 | 0.0 | 0.00 | 0.00 | 0.00 | 90 | 1038.9 |
| 20260509043059 | 48 | 70 | 0.0 | 0.0 | 0.00 | 0.00 | 0.00 | 90 | 1038.9 |
| 20260509042600 | 48 | 70 | 0.0 | 0.0 | 0.00 | 0.00 | 0.00 | 89 | 1038.9 |
| 20260509042103 | 48 | 70 | 0.0 | 0.0 | 0.00 | 0.00 | 0.00 | 89 | 1039.0 |
| 20260509041829 | 48 | 70 | 0.0 | 0.0 | 0.00 | 0.00 | 0.00 | 89 | 1039.0 |
| 20260509041059 | 47 | 70 | 0.0 | 0.0 | 0.00 | 0.00 | 0.00 | 89 | 1039.0 |
| 20260509040545 | 47 | 70 | 0.0 | 0.0 | 0.00 | 0.00 | 0.00 | 89 | 1039.1 |
| 20260509040044 | 48 | 70 | 0.0 | 0.0 | 0.00 | 0.00 | 0.00 | 88 | 1039.1 |
| 20260509035813 | 48 | 70 | 0.0 | 0.0 | 0.00 | 0.00 | 0.00 | 88 | 1039.1 |
| 20260509035044 | 48 | 70 | 0.0 | 0.0 | 0.00 | 0.00 | 0.00 | 88 | 1039.2 |
| 20260509034544 | 48 | 70 | 0.0 | 0.0 | 0.00 | 0.00 | 0.00 | 87 | 1039.2 |
| 20260509034044 | 49 | 70 | 0.0 | 0.0 | 0.00 | 0.00 | 0.00 | 87 | 1039.2 |
| 20260509033544 | 49 | 70 | 0.0 | 0.0 | 0.00 | 0.00 | 0.00 | 87 | 1039.2 |
| 20260509033047 | 49 | 70 | 0.0 | 0.0 | 0.00 | 0.00 | 0.00 | 85 | 1039.2 |
| 20260509032547 | 49 | 70 | 0.0 | 0.0 | 0.00 | 0.00 | 0.00 | 83 | 1039.2 |
| 20260509032041 | 50 | 70 | 0.0 | 0.0 | 0.00 | 0.00 | 0.00 | 84 | 1039.2 |
| 20260509031529 | 50 | 70 | 0.0 | 0.0 | 0.00 | 0.00 | 0.00 | 83 | 1039.2 |
| 20260509031021 | 51 | 70 | 0.0 | 0.0 | 0.00 | 0.00 | 0.00 | 82 | 1039.2 |
| 20260509030508 | 51 | 70 | 0.0 | 0.0 | 0.00 | 0.00 | 0.00 | 82 | 1039.3 |
| 20260509030008 | 51 | 70 | 0.0 | 0.0 | 0.00 | 0.00 | 0.00 | 82 | 1039.3 |
| 20260509025453 | 51 | 70 | 0.0 | 0.0 | 0.00 | 0.00 | 0.00 | 82 | 1039.3 |
| 20260509024956 | 52 | 70 | 0.0 | 0.0 | 0.00 | 0.00 | 0.00 | 80 | 1039.5 |
| 20260509024449 | 52 | 70 | 0.0 | 0.0 | 0.00 | 0.00 | 0.00 | 80 | 1039.5 |
| 20260509023944 | 52 | 70 | 0.0 | 0.0 | 0.00 | 0.00 | 0.00 | 81 | 1039.5 |
| 20260509023437 | 52 | 70 | 0.0 | 0.0 | 0.00 | 0.00 | 0.00 | 82 | 1039.7 |
| 20260509023152 | 52 | 70 | 0.0 | 0.0 | 0.00 | 0.00 | 0.00 | 82 | 1039.7 |
| 20260509022417 | 52 | 70 | 0.0 | 0.0 | 0.00 | 0.00 | 0.00 | 82 | 1039.7 |
| 20260509021921 | 52 | 70 | 0.0 | 0.0 | 0.00 | 0.00 | 0.00 | 82 | 1039.7 |
| 20260509021413 | 52 | 70 | 0.0 | 0.0 | 0.00 | 0.00 | 0.00 | 82 | 1039.7 |
| 20260509020909 | 52 | 70 | 0.0 | 0.0 | 0.00 | 0.00 | 0.00 | 82 | 1039.7 |
| 20260509020401 | 52 | 70 | 0.0 | 0.0 | 0.00 | 0.00 | 0.00 | 82 | 1039.7 |
| 20260509015857 | 52 | 70 | 0.0 | 0.0 | 0.00 | 0.00 | 0.00 | 82 | 1039.7 |
| 20260509015340 | 53 | 70 | 0.0 | 0.0 | 0.00 | 0.00 | 0.00 | 81 | 1039.7 |
| 20260509015110 | 53 | 70 | 0.0 | 0.0 | 0.00 | 0.00 | 0.00 | 81 | 1039.4 |
| 20260509014336 | 53 | 70 | 0.0 | 0.0 | 0.00 | 0.00 | 0.00 | 80 | 1039.4 |
| 20260509013832 | 53 | 70 | 0.0 | 0.0 | 0.00 | 0.00 | 0.00 | 80 | 1039.4 |
| 20260509013317 | 54 | 70 | 0.0 | 0.0 | 0.00 | 0.00 | 0.00 | 80 | 1039.4 |
| 20260509012818 | 54 | 70 | 0.0 | 0.0 | 0.00 | 0.00 | 0.00 | 79 | 1039.4 |
| 20260509012312 | 55 | 70 | 0.0 | 0.0 | 0.00 | 0.00 | 0.00 | 78 | 1039.4 |
| 20260509011759 | 55 | 70 | 0.0 | 0.0 | 0.00 | 0.00 | 0.00 | 76 | 1039.2 |
| 20260509011301 | 55 | 70 | 0.0 | 0.0 | 0.00 | 0.00 | 0.00 | 73 | 1039.2 |
| 20260509010755 | 56 | 70 | 0.0 | 0.0 | 0.00 | 0.00 | 0.00 | 72 | 1039.2 |
| 20260509010249 | 57 | 70 | 0.0 | 0.0 | 0.00 | 0.00 | 0.00 | 74 | 1039.2 |
| 20260509005742 | 57 | 70 | 0.0 | 0.0 | 0.00 | 0.00 | 0.00 | 73 | 1039.2 |
| 20260509005236 | 58 | 70 | 0.0 | 0.0 | 0.00 | 0.00 | 0.00 | 72 | 1039.2 |
| 20260509004953 | 58 | 70 | 0.0 | 0.0 | 0.00 | 0.00 | 0.00 | 72 | 1039.2 |
| 20260509004216 | 59 | 70 | 0.0 | 0.0 | 0.00 | 0.00 | 0.00 | 70 | 1039.2 |
| 20260509003718 | 59 | 71 | 0.0 | 0.0 | 0.00 | 0.00 | 0.00 | 70 | 1039.2 |
| 20260509003205 | 60 | 70 | 0.0 | 0.0 | 0.00 | 0.00 | 0.00 | 69 | 1039.1 |
| 20260509002201 | 61 | 70 | 0.0 | 0.0 | 0.00 | 0.00 | 0.00 | 69 | 1039.1 |
| 20260509001654 | 61 | 70 | 0.0 | 0.0 | 0.00 | 0.00 | 0.00 | 67 | 1039.1 |
| 20260509001149 | 62 | 70 | 0.0 | 0.0 | 0.00 | 0.00 | 0.00 | 67 | 1039.1 |
| 20260509000634 | 62 | 70 | 0.0 | 0.0 | 0.00 | 0.00 | 0.00 | 66 | 1039.1 |
| 20260509000136 | 63 | 70 | 0.0 | 0.0 | 0.00 | 0.00 | 0.00 | 64 | 1038.8 |
| 20260508235630 | 63 | 71 | 0.0 | 0.0 | 0.00 | 0.00 | 0.00 | 60 | 1038.8 |
| 20260508235117 | 64 | 70 | 0.0 | 0.0 | 0.00 | 0.00 | 0.00 | 59 | 1038.7 |
| 20260508234618 | 64 | 70 | 0.0 | 0.0 | 0.00 | 0.00 | 0.00 | 60 | 1038.7 |
| 20260508234113 | 65 | 70 | 0.0 | 0.0 | 0.00 | 0.00 | 0.00 | 59 | 1038.7 |
| 20260508233606 | 65 | 70 | 0.0 | 0.0 | 0.00 | 0.00 | 0.00 | 60 | 1038.6 |
| 20260508233054 | 65 | 248 | 0.0 | 0.0 | 0.00 | 0.00 | 0.00 | 59 | 1038.6 |
| 20260508232554 | 66 | 248 | 0.0 | 0.0 | 0.00 | 0.00 | 0.00 | 56 | 1038.6 |
| 20260508232050 | 66 | 248 | 0.0 | 0.0 | 0.00 | 0.00 | 0.00 | 54 | 1038.6 |
| 20260508231542 | 66 | 248 | 0.0 | 0.0 | 0.00 | 0.00 | 0.00 | 53 | 1038.6 |
| 20260508231037 | 66 | 248 | 0.0 | 0.0 | 0.00 | 0.00 | 0.00 | 53 | 1038.6 |
| 20260508230751 | 67 | 248 | 0.0 | 0.0 | 0.00 | 0.00 | 0.00 | 51 | 1038.6 |
| 20260508230250 | 67 | 248 | 0.0 | 0.0 | 0.00 | 0.00 | 0.00 | 50 | 1038.6 |